Date String (YYYY-MM-DD hh:mm:ss) UTC,Instrument flags,Ambient pressure (hPa),Sample flow (lpm),Bypass flow (lpm),Sample temperature (°C),Ambient temperature (°C),ASC tube jacket temperature (°C),LED temperature (°C),Box temperature (°C),Sample RH (%),Span deviation,Mass concentration (μg/m³),Mass concentration (μg/m³),Mass concentration (μg/m³)
DateTimeUTC,F1_M11,P_M11,Q1_M11,Q2_M11,T1_M11,T2_M11,T3_M11,T4_M11,T5_M11,U1_M11,ZSPAN_M11,X2_M11,X0_M11,X1_M11
2021-09-17 09:00:00,,0832.0,4.99,0.00,29.9,29.0,00.0,39.0,31.7,19.8,0003.7,0027.49,0043.06,0024.41
2021-09-17 09:01:00,,0831.9,5.00,0.00,29.9,29.0,00.0,39.0,31.7,19.7,0003.7,0026.91,0042.05,0023.91
2021-09-17 09:02:00,,0832.0,5.00,0.00,29.9,29.0,00.0,39.0,31.7,19.7,0003.6,0026.25,0042.28,0023.31
2021-09-17 09:03:00,,0832.0,4.99,0.00,29.9,29.0,00.0,39.0,31.7,19.7,0003.7,0025.51,0042.14,0022.60
2021-09-17 09:04:00,,0832.1,5.01,0.00,29.9,29.0,00.0,39.0,31.8,19.7,0003.7,0024.68,0041.80,0021.85
2021-09-17 09:05:00,,0832.0,5.00,0.00,29.9,29.0,00.0,39.0,31.7,19.4,0003.5,0023.69,0040.24,0020.97
2021-09-17 09:06:00,,0832.1,5.00,0.00,29.9,29.0,00.0,39.0,31.7,19.0,0003.4,0022.34,0038.16,0019.70
2021-09-17 09:07:00,,0832.0,4.99,0.00,29.9,29.0,00.0,39.0,31.7,18.9,0003.5,0021.00,0036.72,0018.42
2021-09-17 09:08:00,,0832.1,5.00,0.00,29.9,29.0,00.0,39.0,31.7,18.7,0003.6,0019.59,0035.13,0017.04
2021-09-17 09:09:00,,0832.1,5.01,0.00,29.9,29.0,00.0,39.0,31.7,18.6,0003.8,0018.01,0033.44,0015.62
2021-09-17 09:10:00,,0832.1,4.99,0.00,29.9,29.0,00.0,39.0,31.7,18.6,0003.7,0016.53,0033.02,0014.30
2021-09-17 09:11:00,,0832.1,5.01,0.00,29.9,29.0,00.0,39.0,31.7,18.5,0003.4,0015.26,0031.59,0013.08
2021-09-17 09:12:00,,0832.1,4.99,0.00,29.9,29.0,00.0,39.0,31.7,18.5,0003.3,0014.14,0031.07,0011.94
2021-09-17 09:13:00,,0832.2,5.00,0.00,29.9,29.0,00.0,39.0,31.7,18.4,0003.3,0013.02,0029.45,0010.86
2021-09-17 09:14:00,,0832.3,5.00,0.00,29.9,29.0,00.0,39.0,31.7,18.5,0003.1,0011.95,0028.31,0009.86
2021-09-17 09:15:00,,0832.2,5.00,0.00,29.9,29.1,00.0,39.0,31.7,18.5,0002.7,0010.97,0027.63,0008.93
2021-09-17 09:16:00,,0832.3,4.99,0.00,29.9,29.0,00.0,39.0,31.7,18.5,0003.1,0010.21,0026.00,0008.20
2021-09-17 09:17:00,,0832.3,5.01,0.00,29.9,29.0,00.0,39.0,31.7,18.6,0003.1,0009.85,0025.80,0007.85
2021-09-17 09:18:00,,0832.3,4.99,0.00,29.9,29.0,00.0,39.0,31.7,18.6,0002.9,0009.56,0025.13,0007.58
2021-09-17 09:19:00,,0832.3,5.01,0.00,29.9,29.1,00.0,39.0,31.7,18.7,0003.0,0009.39,0024.71,0007.42
2021-09-17 09:20:00,,0832.4,4.99,0.00,29.9,29.1,00.0,39.0,31.7,18.8,0003.2,0009.40,0024.56,0007.37
2021-09-17 09:21:00,,0832.4,5.01,0.00,29.9,29.1,00.0,39.0,31.7,18.8,0003.1,0009.39,0023.50,0007.33
2021-09-17 09:22:00,,0832.4,5.00,0.00,29.9,29.1,00.0,39.0,31.7,18.7,0003.3,0009.37,0023.85,0007.29
2021-09-17 09:23:00,,0832.5,5.00,0.00,29.9,29.1,00.0,39.0,31.7,18.5,0003.3,0009.27,0024.01,0007.21
2021-09-17 09:24:00,,0832.6,4.99,0.00,29.9,29.1,00.0,39.0,31.7,18.5,0003.1,0009.15,0023.14,0007.13
2021-09-17 09:25:00,,0832.6,4.99,0.00,29.9,29.1,00.0,39.0,31.7,18.5,0002.7,0009.01,0022.28,0007.04
2021-09-17 09:26:00,,0832.7,5.00,0.00,29.9,29.1,00.0,39.0,31.7,18.5,0002.9,0009.01,0021.77,0006.94
2021-09-17 09:27:00,,0832.7,5.01,0.00,29.9,29.1,00.0,39.0,31.7,18.4,0002.5,0008.93,0022.21,0006.83
2021-09-17 09:28:00,,0832.7,5.00,0.00,29.9,29.1,00.0,39.0,31.7,18.3,0002.2,0008.75,0021.96,0006.66
2021-09-17 09:29:00,,0832.7,4.99,0.00,29.9,29.1,00.0,39.0,31.7,18.3,0002.2,0008.49,0021.59,0006.47
2021-09-17 09:30:00,,0832.7,5.01,0.00,29.9,29.1,00.0,39.0,31.7,18.3,0001.9,0008.23,0021.09,0006.26
2021-09-17 09:31:00,,0832.7,4.99,0.00,29.9,29.1,00.0,39.0,31.7,18.2,0000.2,0007.95,0021.33,0006.02
2021-09-17 09:32:00,,0832.8,5.01,0.00,29.9,29.1,00.0,39.0,31.7,18.2,0000.0,0007.58,0021.96,0005.73
2021-09-17 09:33:00,,0832.8,4.99,0.00,30.0,29.1,00.0,39.1,31.7,18.1,0000.0,0007.28,0022.11,0005.47
2021-09-17 09:34:00,,0832.9,5.00,0.00,30.0,29.1,00.0,39.1,31.7,18.1,0000.0,0007.09,0021.45,0005.27
2021-09-17 09:35:00,,0832.9,5.01,0.00,30.0,29.2,00.0,39.1,31.8,18.0,0000.0,0006.99,0022.68,0005.11
2021-09-17 09:36:00,,0833.1,4.99,0.00,30.0,29.2,00.0,39.1,31.8,18.0,0000.0,0006.85,0022.58,0004.97
2021-09-17 09:37:00,,0833.0,4.99,0.00,30.0,29.2,00.0,39.1,31.7,17.9,0000.0,0006.68,0021.67,0004.82
2021-09-17 09:38:00,,0833.1,4.99,0.00,30.0,29.2,00.0,39.1,31.8,17.9,0000.0,0006.53,0021.46,0004.68
2021-09-17 09:39:00,,0833.0,5.01,0.00,30.0,29.2,00.0,39.1,31.8,17.9,0000.0,0006.36,0021.75,0004.57
2021-09-17 09:40:00,,0833.1,5.00,0.00,30.0,29.3,00.0,39.1,31.8,17.9,0000.0,0006.25,0021.39,0004.45
2021-09-17 09:41:00,,0833.1,4.99,0.00,30.1,29.3,00.0,39.1,31.8,17.9,0000.0,0006.13,0021.50,0004.36
2021-09-17 09:42:00,,0833.1,5.01,0.00,30.1,29.3,00.0,39.1,31.8,17.8,0000.0,0006.04,0020.57,0004.29
2021-09-17 09:43:00,,0833.1,5.00,0.00,30.1,29.3,00.0,39.2,31.9,17.8,0000.0,0006.00,0019.55,0004.26
2021-09-17 09:44:00,,0833.1,4.99,0.00,30.1,29.3,00.0,39.2,31.9,17.7,0000.0,0005.92,0018.74,0004.22
2021-09-17 09:45:00,,0833.1,5.00,0.00,30.1,29.3,00.0,39.2,31.9,17.7,0000.0,0005.82,0018.63,0004.16
2021-09-17 09:46:00,,0833.1,5.00,0.00,30.1,29.3,00.0,39.2,31.9,17.6,0000.0,0005.70,0017.51,0004.10
2021-09-17 09:47:00,,0833.1,5.00,0.00,30.1,29.3,00.0,39.2,31.9,17.6,0000.0,0005.66,0017.08,0004.05
2021-09-17 09:48:00,,0833.2,5.01,0.00,30.1,29.3,00.0,39.2,31.9,17.6,0000.0,0005.65,0017.76,0004.01
2021-09-17 09:49:00,,0833.2,4.99,0.00,30.1,29.3,00.0,39.2,31.9,17.6,0000.0,0005.60,0018.47,0003.97
2021-09-17 09:50:00,,0833.2,5.01,0.00,30.1,29.3,00.0,39.2,31.9,17.5,0000.0,0005.56,0018.44,0003.92
2021-09-17 09:51:00,,0833.2,5.00,0.00,30.1,29.3,00.0,39.2,31.9,17.4,0000.0,0005.51,0018.11,0003.87
2021-09-17 09:52:00,,0833.3,5.01,0.00,30.1,29.2,00.0,39.2,31.9,17.3,0000.0,0005.48,0017.39,0003.82
2021-09-17 09:53:00,,0833.3,5.00,0.00,30.1,29.2,00.0,39.2,31.8,17.4,0000.0,0005.46,0017.54,0003.76
2021-09-17 09:54:00,,0833.3,4.99,0.00,30.1,29.2,00.0,39.2,31.8,17.4,0000.0,0005.43,0017.88,0003.70
2021-09-17 09:55:00,,0833.3,5.01,0.00,30.1,29.2,00.0,39.2,31.8,17.4,0000.0,0005.39,0017.81,0003.65
2021-09-17 09:56:00,,0833.3,5.01,0.00,30.1,29.2,00.0,39.2,31.8,17.4,0000.0,0005.38,0018.05,0003.62
2021-09-17 09:57:00,,0833.3,5.00,0.00,30.1,29.2,00.0,39.2,31.8,17.4,0000.0,0005.41,0018.65,0003.59
2021-09-17 09:58:00,,0833.4,5.00,0.00,30.1,29.2,00.0,39.2,31.8,17.5,0000.0,0005.41,0018.80,0003.58
2021-09-17 09:59:00,,0833.4,5.00,0.00,30.0,29.2,00.0,39.2,31.8,17.5,0000.0,0005.30,0017.94,0003.55
